Regional Weather Roundup
Issued by NWS Green Bay, WI

Home | Current Version | Previous Version | Text Only | Print | Product List | Glossary On
Versions: 1 2 3 4 5 6 7 8 9 10 11 12 13 14 15 16 17 18 19 20 21 22 23 24 25 26 27 28 29 30 31 32 33 34 35 36 37 38 39 40 41 42 43 44 45 46 47 48 49 50
000
ASUS43 KGRB 180700
RWRGRB

NORTH-CENTRAL AND NORTHEAST WISCONSIN REGIONAL WEATHER ROUNDUP
NATIONAL WEATHER SERVICE GREEN BAY WI
100 AM CST THU JAN 18 2018

WIZ005-009-010>012-018-019-180800-
NORTH CENTRAL WISCONSIN

CITY           SKY/WX    TMP DP  RH WIND       PRES   REMARKS
IRONWOOD       FAIR      20  14  77 SW9       29.86F WCI   9
MANITOWISH WTR NOT AVBL
ARBOR VITAE    NOT AVBL
EAGLE RIVER    FAIR      18  11  75 W13       29.86R WCI   4
LAND O LAKES   NOT AVBL
RHINELANDER    FAIR      18  13  80 W12       29.89R WCI   5
PHILLIPS       FAIR      18  13  80 SW9       29.90S WCI   7
ANTIGO         NOT AVBL
TOMAHAWK       NOT AVBL
MERRILL        FAIR      19  13  76 W10       29.94S WCI   8
$$

WIZ013-073-180800-
NORTHEAST WISCONSIN

CITY           SKY/WX    TMP DP  RH WIND       PRES   REMARKS
IRON MOUNTAIN  FAIR      22  12  65 W9        29.83S
MARINETTE      FAIR      20  11  68 W8        29.92F
$$

WIZ017-030-035>037-045-180800-
CENTRAL WISCONSIN

CITY           SKY/WX    TMP DP  RH WIND       PRES   REMARKS
MEDFORD        NOT AVBL
WAUSAU         FAIR      19  12  74 W7        29.94S WCI  10
MOSINEE        NOT AVBL
MARSHFIELD     FAIR      18  11  74 W9        29.96S WCI   7
WISC RAPIDS    FAIR      20  10  65 W9        30.01S WCI   9
STEVENS POINT  NOT AVBL
WAUPACA        NOT AVBL
SHAWANO        FAIR      24  13  64 SW7       29.94F
CLINTONVILLE   NOT AVBL
WAUTOMA        FAIR      18  10  71 SW9       30.01F WCI   7
$$

WIZ038-039-048-051-180800-
FOX VALLEY

CITY           SKY/WX    TMP DP  RH WIND       PRES   REMARKS
NWS GREEN BAY  FAIR      19   9  65 SW8       29.96F WCI   9
APPLETON       NOT AVBL
OSHKOSH        FAIR      20  10  65 SW9G17    30.00F WCI   9
FOND DU LAC    FAIR      20   8  60 SW12      30.02F WCI   8
$$

WIZ022-050-052-180800-
EAST CENTRAL WISCONSIN

CITY           SKY/WX    TMP DP  RH WIND       PRES   REMARKS
EPHRAIM        NOT AVBL
WASHINGTON ISL NOT AVBL
STURGEON BAY   FAIR      20  12  71 SW14      29.93F WCI   7
MANITOWOC      FAIR      20  11  68 W14       29.99F WCI   7
SHEBOYGAN      FAIR      20  11  68 W14G22    30.01F WCI   7
$$

LMZ563-521-522-541>543-180800-
LAKESHORE

STATION/POSITION TIME  TEMP    WIND        PRES    VSBY  WAVE
                       AIR SEA DIR/SP/G                  HT/PER
                 (UTC) (F)     (DEG/KT/KT) (MB)    (MI)  (FT/S)
SHEBOYGAN LKSHOR 0600   22     240/ 12/ 14 1018.0F
KEWAUNEE LKSHORE 0630   21     240/  5/  9 1014.3F
NORTHPORT PIER   0646   22     230/  7     1012.5F
MENOMINEE LKSHOR 0630   22     210/  9/ 12 1012.9F
$$




USA.gov is the U.S. government's official web portal to all federal, state and local government web resources and services.